Location: Nashville
(36.1660°N, 86.7840°W)
Time: 20:50:20
(UTC-05:00)

Tiros 1 - Pass Details

Date: 04 February 2022
Orbit: 629 x 663 km, 48.4° (Epoch: 27 May)

Event Time Altitude Azimuth Distance (km) Brightness Sun altitude
Rises 17:41:28 0° 227° (SW) 2,958 11.8 -5.5°
Reaches altitude 10° 17:43:48 10° 225° (SW) 2,055 10.8 -6.0°
Maximum altitude 17:48:32 73° 142° (SE) 688 7.2 -6.9°
Drops below altitude 10° 17:53:19 10° 57° (ENE) 2,078 9.2 -7.8°
Enters shadow 17:53:40 - 57° (ENE) 2,214 9.3 -7.9°
